When you browse on this site, cookies collect data to enhance your experience and personalize the content and advertising you see.
Visit our Privacy Policy to learn more. By continuing to use the site, you agree to this use of cookies and data.
  • In Hungary
  • List of Countries
  • For 7 days
  • Water Temperature
  • Weather Map
  • News
  • Weather Widgets
  • user-avatar
    Login

    Hourly Weather Sadovoe

    Today, 22 October, Tuesday

    Time Temperature Precipitation Wind Pressure Humidity
    00:00 +10°C° 0 mm 5 mps 758 mmHg 71%
    01:00 +10°C° 0 mm 5 mps 757 mmHg 70%
    02:00 +10°C° 0 mm 5 mps 757 mmHg 69%
    03:00 +10°C° 0 mm 5 mps 757 mmHg 68%
    04:00 +10°C° 0 mm 5 mps 757 mmHg 69%
    05:00 +10°C° 0 mm 5 mps 756 mmHg 70%
    06:00 +10°C° 0 mm 5 mps 756 mmHg 70%
    07:00 +10°C° 0 mm 5 mps 756 mmHg 69%
    08:00 +10°C° 0 mm 5 mps 756 mmHg 69%
    09:00 +12°C° 0 mm 5 mps 756 mmHg 69%
    10:00 +13°C° 0 mm 5 mps 756 mmHg 68%
    11:00 +13°C° 0 mm 4 mps 756 mmHg 68%
    12:00 +14°C° 0 mm 4 mps 756 mmHg 67%
    13:00 +13°C° 0.6 mm 4 mps 756 mmHg 72%
    14:00 +13°C° 0.6 mm 3 mps 756 mmHg 77%
    15:00 +13°C° 0 mm 3 mps 756 mmHg 75%
    16:00 +14°C° 0 mm 2 mps 756 mmHg 78%
    17:00 +13°C° 0 mm 2 mps 756 mmHg 80%
    18:00 +13°C° 0 mm 2 mps 756 mmHg 83%
    19:00 +12°C° 0 mm 2 mps 756 mmHg 85%
    20:00 +12°C° 0 mm 2 mps 756 mmHg 87%
    21:00 +12°C° 0 mm 2 mps 756 mmHg 89%
    22:00 +10°C° 0 mm 2 mps 756 mmHg 90%
    23:00 +10°C° 0 mm 2 mps 756 mmHg 90%

    Tomorrow, 23 October, Wednesday

    Time Temperature Precipitation Wind Pressure Humidity
    00:00 +10°C° 0 mm 2 mps 756 mmHg 91%
    01:00 +10°C° 0 mm 1 mps 756 mmHg 90%
    02:00 +10°C° 0 mm 1 mps 756 mmHg 90%
    03:00 +10°C° 0 mm 1 mps 756 mmHg 89%
    04:00 +10°C° 0 mm 1 mps 756 mmHg 89%
    05:00 +9°C° 0 mm 1 mps 756 mmHg 89%
    06:00 +8°C° 0 mm 0 mps 756 mmHg 88%
    07:00 +10°C° 0 mm 1 mps 756 mmHg 85%
    08:00 +11°C° 0 mm 1 mps 756 mmHg 82%
    09:00 +12°C° 0 mm 1 mps 756 mmHg 79%
    10:00 +13°C° 0 mm 2 mps 756 mmHg 74%
    11:00 +13°C° 0 mm 3 mps 756 mmHg 69%
    12:00 +14°C° 0 mm 4 mps 755 mmHg 64%
    13:00 +15°C° 0 mm 4 mps 755 mmHg 63%
    14:00 +15°C° 0 mm 4 mps 755 mmHg 62%
    15:00 +15°C° 0 mm 4 mps 755 mmHg 62%
    16:00 +14°C° 0.1 mm 4 mps 754 mmHg 66%
    17:00 +14°C° 0.1 mm 4 mps 754 mmHg 71%
    18:00 +13°C° 0.1 mm 4 mps 754 mmHg 75%
    19:00 +13°C° 0.4 mm 4 mps 754 mmHg 79%
    20:00 +13°C° 0.4 mm 4 mps 754 mmHg 83%
    21:00 +13°C° 0.4 mm 4 mps 754 mmHg 87%
    22:00 +13°C° 0.2 mm 4 mps 754 mmHg 88%
    23:00 +13°C° 0.2 mm 4 mps 754 mmHg 90%

    Day after tomorrow, 24 October, Thursday

    Time Temperature Precipitation Wind Pressure Humidity
    00:00 +12°C° 0.2 mm 3 mps 754 mmHg 92%
    01:00 +12°C° 0.5 mm 3 mps 754 mmHg 92%
    02:00 +13°C° 0.5 mm 2 mps 754 mmHg 92%
    03:00 +13°C° 0.5 mm 2 mps 754 mmHg 93%
    04:00 +13°C° 0 mm 2 mps 754 mmHg 92%
    05:00 +13°C° 0 mm 2 mps 754 mmHg 91%
    06:00 +13°C° 0 mm 2 mps 754 mmHg 90%
    07:00 +13°C° 0 mm 2 mps 754 mmHg 87%
    08:00 +13°C° 0 mm 1 mps 754 mmHg 85%
    09:00 +14°C° 0 mm 1 mps 754 mmHg 82%
    10:00 +15°C° 0 mm 1 mps 754 mmHg 79%
    11:00 +15°C° 0 mm 1 mps 754 mmHg 75%
    12:00 +15°C° 0 mm 0 mps 754 mmHg 72%
    13:00 +16°C° 0 mm 1 mps 754 mmHg 72%
    14:00 +16°C° 0 mm 1 mps 754 mmHg 72%
    15:00 +16°C° 0 mm 1 mps 754 mmHg 72%
    16:00 +16°C° 0 mm 1 mps 754 mmHg 75%
    17:00 +15°C° 0 mm 2 mps 754 mmHg 77%
    18:00 +15°C° 0 mm 2 mps 754 mmHg 79%
    19:00 +14°C° 0 mm 2 mps 754 mmHg 80%
    20:00 +14°C° 0 mm 2 mps 754 mmHg 81%
    21:00 +14°C° 0 mm 2 mps 754 mmHg 81%
    22:00 +14°C° 0 mm 2 mps 754 mmHg 82%
    23:00 +13°C° 0 mm 2 mps 754 mmHg 82%

    25 October, Friday

    Time Temperature Precipitation Wind Pressure Humidity
    00:00 +13°C° 0 mm 2 mps 754 mmHg 83%
    01:00 +13°C° 0 mm 2 mps 754 mmHg 82%
    02:00 +13°C° 0 mm 2 mps 754 mmHg 82%
    03:00 +13°C° 0 mm 2 mps 754 mmHg 81%
    04:00 +12°C° 0 mm 2 mps 754 mmHg 81%
    05:00 +12°C° 0 mm 2 mps 754 mmHg 81%
    06:00 +12°C° 0 mm 2 mps 754 mmHg 80%
    07:00 +12°C° 0 mm 2 mps 755 mmHg 79%
    08:00 +13°C° 0 mm 2 mps 755 mmHg 78%
    09:00 +13°C° 0 mm 1 mps 755 mmHg 77%
    10:00 +14°C° 0 mm 1 mps 755 mmHg 74%
    11:00 +15°C° 0 mm 1 mps 755 mmHg 71%
    12:00 +15°C° 0 mm 1 mps 755 mmHg 68%
    13:00 +15°C° 0 mm 1 mps 755 mmHg 69%
    14:00 +15°C° 0 mm 2 mps 755 mmHg 71%
    15:00 +15°C° 0 mm 2 mps 755 mmHg 72%
    16:00 +14°C° 0.1 mm 2 mps 755 mmHg 75%
    17:00 +14°C° 0.1 mm 1 mps 755 mmHg 78%
    18:00 +13°C° 0.1 mm 1 mps 756 mmHg 81%
    19:00 +13°C° 0.2 mm 1 mps 756 mmHg 83%
    20:00 +13°C° 0.2 mm 1 mps 756 mmHg 85%
    21:00 +13°C° 0.2 mm 1 mps 756 mmHg 87%
    22:00 +13°C° 0.1 mm 1 mps 756 mmHg 86%
    23:00 +12°C° 0.1 mm 1 mps 756 mmHg 84%

    26 October, Saturday

    Time Temperature Precipitation Wind Pressure Humidity
    00:00 +12°C° 0.1 mm 1 mps 756 mmHg 83%
    01:00 +12°C° 0 mm 2 mps 756 mmHg 81%
    02:00 +12°C° 0 mm 2 mps 756 mmHg 78%
    03:00 +12°C° 0 mm 2 mps 756 mmHg 76%
    04:00 +12°C° 0 mm 2 mps 756 mmHg 77%
    05:00 +12°C° 0 mm 2 mps 756 mmHg 79%
    06:00 +11°C° 0 mm 3 mps 756 mmHg 80%
    07:00 +11°C° 0 mm 3 mps 756 mmHg 79%
    08:00 +11°C° 0 mm 3 mps 757 mmHg 78%
    09:00 +12°C° 0 mm 3 mps 757 mmHg 77%
    10:00 +13°C° 0 mm 3 mps 757 mmHg 72%
    11:00 +14°C° 0 mm 3 mps 757 mmHg 67%
    12:00 +16°C° 0 mm 3 mps 757 mmHg 63%
    13:00 +16°C° 0 mm 3 mps 757 mmHg 61%
    14:00 +15°C° 0 mm 4 mps 756 mmHg 59%
    15:00 +15°C° 0 mm 4 mps 756 mmHg 56%
    16:00 +14°C° 0 mm 3 mps 756 mmHg 60%
    17:00 +13°C° 0 mm 3 mps 756 mmHg 63%
    18:00 +13°C° 0 mm 2 mps 756 mmHg 66%
    19:00 +13°C° 0 mm 2 mps 756 mmHg 65%
    20:00 +13°C° 0 mm 2 mps 756 mmHg 63%
    21:00 +12°C° 0 mm 2 mps 756 mmHg 62%
    22:00 +12°C° 0 mm 2 mps 755 mmHg 62%
    23:00 +12°C° 0 mm 2 mps 755 mmHg 62%

    27 October, Sunday

    Time Temperature Precipitation Wind Pressure Humidity
    00:00 +10°C° 0 mm 2 mps 755 mmHg 62%
    01:00 +10°C° 0 mm 2 mps 755 mmHg 63%
    02:00 +10°C° 0 mm 2 mps 755 mmHg 63%
    03:00 +10°C° 0 mm 2 mps 755 mmHg 64%
    04:00 +10°C° 0 mm 2 mps 754 mmHg 64%
    05:00 +9°C° 0 mm 2 mps 754 mmHg 64%
    06:00 +9°C° 0 mm 2 mps 754 mmHg 64%
    07:00 +10°C° 0 mm 2 mps 754 mmHg 61%
    08:00 +12°C° 0 mm 2 mps 754 mmHg 59%
    09:00 +13°C° 0 mm 2 mps 754 mmHg 56%
    10:00 +13°C° 0 mm 3 mps 754 mmHg 52%
    11:00 +14°C° 0 mm 4 mps 754 mmHg 48%
    12:00 +15°C° 0 mm 4 mps 753 mmHg 44%
    13:00 +15°C° 0 mm 5 mps 753 mmHg 45%
    14:00 +15°C° 0 mm 5 mps 752 mmHg 45%
    15:00 +15°C° 0 mm 5 mps 752 mmHg 46%
    16:00 +14°C° 0 mm 5 mps 751 mmHg 50%
    17:00 +14°C° 0 mm 5 mps 751 mmHg 54%
    18:00 +13°C° 0 mm 4 mps 751 mmHg 59%
    19:00 +12°C° 0 mm 5 mps 750 mmHg 61%
    20:00 +12°C° 0 mm 5 mps 750 mmHg 64%
    21:00 +12°C° 0 mm 5 mps 750 mmHg 66%
    22:00 +12°C° 0 mm 5 mps 749 mmHg 63%
    23:00 +10°C° 0 mm 5 mps 749 mmHg 61%

    28 October, Monday

    Time Temperature Precipitation Wind Pressure Humidity
    00:00 +10°C° 0 mm 5 mps 749 mmHg 58%
    01:00 +10°C° 0 mm 5 mps 748 mmHg 58%
    02:00 +10°C° 0 mm 5 mps 748 mmHg 58%
    03:00 +9°C° 0 mm 5 mps 747 mmHg 57%
    04:00 +9°C° 0 mm 6 mps 747 mmHg 63%
    05:00 +9°C° 0 mm 6 mps 746 mmHg 68%
    06:00 +9°C° 0 mm 6 mps 746 mmHg 73%
    07:00 +10°C° 0 mm 6 mps 745 mmHg 72%
    08:00 +11°C° 0 mm 7 mps 745 mmHg 71%
    09:00 +11°C° 0 mm 7 mps 745 mmHg 69%
    10:00 +12°C° 0 mm 7 mps 745 mmHg 69%
    11:00 +12°C° 0 mm 7 mps 745 mmHg 68%
    12:00 +12°C° 0 mm 7 mps 745 mmHg 67%
    13:00 +11°C° 0.4 mm 6 mps 744 mmHg 73%
    14:00 +11°C° 0.4 mm 6 mps 744 mmHg 78%
    15:00 +10°C° 0.4 mm 5 mps 744 mmHg 84%
    16:00 +10°C° 0 mm 4 mps 744 mmHg 84%
    17:00 +10°C° 0 mm 4 mps 744 mmHg 84%
    18:00 +9°C° 0 mm 3 mps 744 mmHg 84%
    19:00 +9°C° 0 mm 3 mps 744 mmHg 81%
    20:00 +9°C° 0 mm 3 mps 745 mmHg 77%
    21:00 +9°C° 0 mm 3 mps 745 mmHg 74%
    22:00 +8°C° 0 mm 3 mps 745 mmHg 74%
    23:00 +8°C° 0 mm 3 mps 745 mmHg 74%
    Show more